Location: Spruce Knob
(38.6995°N, 79.5330°W)
Time: 14:20:13
(UTC-04:00)

MOZHAYETS 4 - Pass Details

Date: 31 May 2024
Orbit: 652 x 670 km, 98.3° (Epoch: 14 June)

Event Time Altitude Azimuth Distance (km) Brightness Sun altitude
Rises 03:45:51 0° 133° (SE) 2,982 11.0 -19.9°
Reaches altitude 10° 03:48:25 10° 120° (ESE) 2,071 10.3 -19.6°
Maximum altitude 03:51:58 23° 68° (ENE) 1,388 10.0 -19.1°
Drops below altitude 10° 03:55:31 10° 16° (NNE) 2,073 11.3 -18.7°
Sets 03:58:05 0° 2° (N) 2,986 11.9 -18.4°
